WetterOnline ( http://www.wetteronline.de )

Wetter aktuell Feuchtwangen

Aktuelles Wetter: Feuchtwangen-Heilbronn (475m)

6-stündlich | Neueste Meldungen
Ortszeit Temperatur Wetter
Do, 21.03. 7:00 -3.3° C leicht bewölkt
Do, 21.03. 1:00 -2.4° C wolkenlos
Mi, 20.03. 19:00 5.0° C wolkenlos
Mi, 20.03. 13:00 8.0° C wolkenlos
Mi, 20.03. 7:00 -3.8° C leicht bewölkt
Mi, 20.03. 1:00 -3.0° C wolkenlos
Di, 19.03. 19:00 3.2° C wolkenlos
Di, 19.03. 13:00 5.0° C wolkig
Ortszeit Temperatur Wetter
Do, 21.03. 10:00 7.1° C wolkenlos
Do, 21.03. 9:50 7.1° C wolkenlos
Do, 21.03. 9:40 6.9° C wolkenlos
Do, 21.03. 9:30 6.2° C fast wolkenlos
Do, 21.03. 9:20 6.2° C fast wolkenlos
Do, 21.03. 9:10 6.1° C leicht bewölkt
Do, 21.03. 9:00 4.9° C leicht bewölkt
Do, 21.03. 8:30 3.1° C wolkig
Do, 21.03. 8:00 0.7° C leicht bewölkt
Do, 21.03. 7:30 -1.5° C leicht bewölkt
Do, 21.03. 7:00 -3.3° C leicht bewölkt
Ortszeit Relative Feuchte Sichtweite
Do, 21.03. 7:00 91% 30 km
Do, 21.03. 1:00 91% 35 km
Mi, 20.03. 19:00 57% 60 km
Mi, 20.03. 13:00 44% 65 km
Mi, 20.03. 7:00 96% 27 km
Mi, 20.03. 1:00 91% 30 km
Di, 19.03. 19:00 61% 50 km
Di, 19.03. 13:00 59% 45 km
Ortszeit Relative Feuchte Sichtweite
Do, 21.03. 10:00 50% 40 km
Do, 21.03. 9:50 50% -
Do, 21.03. 9:40 51% -
Do, 21.03. 9:30 56% 35 km
Do, 21.03. 9:20 56% -
Do, 21.03. 9:10 53% -
Do, 21.03. 9:00 68% 35 km
Do, 21.03. 8:30 67% 35 km
Do, 21.03. 8:00 78% 30 km
Do, 21.03. 7:30 82% 25 km
Do, 21.03. 7:00 91% 30 km
Ortszeit Niederschlagsmenge Niederschlagsart
Do, 21.03. 7:00 0.0 l/m2 in 12 Std. -
Do, 21.03. 1:00 0.0 l/m2 in 6 Std. -
Mi, 20.03. 19:00 0.0 l/m2 in 12 Std. -
Mi, 20.03. 13:00 0.0 l/m2 in 6 Std. -
Mi, 20.03. 7:00 0.0 l/m2 in 12 Std. -
Mi, 20.03. 1:00 0.0 l/m2 in 6 Std. -
Di, 19.03. 19:00 0.0 l/m2 in 12 Std. -
Di, 19.03. 13:00 0.0 l/m2 in 6 Std. -
Ortszeit Niederschlagsmenge Niederschlagsart
Do, 21.03. 10:00 0.0 l/m2 in 1 Std. -
Do, 21.03. 9:50 keine Meldung -
Do, 21.03. 9:40 keine Meldung -
Do, 21.03. 9:30 0.0 l/m2 in 1 Std. -
Do, 21.03. 9:20 keine Meldung -
Do, 21.03. 9:10 keine Meldung -
Do, 21.03. 9:00 0.0 l/m2 in 1 Std. -
Do, 21.03. 8:30 0.0 l/m2 in 1 Std. -
Do, 21.03. 8:00 0.0 l/m2 in 1 Std. -
Do, 21.03. 7:30 0.0 l/m2 in 1 Std. -
Do, 21.03. 7:00 0.0 l/m2 in 1 Std. -
Ortszeit Stärke Spitze Richtung
km/h Bft. km/h Grad Sektor
Do, 21.03. 7:00 4 1 7 40° NO
Do, 21.03. 1:00 0 0 11 - -
Mi, 20.03. 19:00 7 2 22 70° O
Mi, 20.03. 13:00 7 2 14 70° O
Mi, 20.03. 7:00 0 0 4 - -
Mi, 20.03. 1:00 0 0 7 - -
Di, 19.03. 19:00 7 2 22 60° NO
Di, 19.03. 13:00 14 3 29 330° NW
Ortszeit Stärke Spitze Richtung
km/h Bft. km/h Grad Sektor
Do, 21.03. 10:00 15 3 20 80° O
Do, 21.03. 9:50 15 3 - 80° O
Do, 21.03. 9:40 14 3 - 90° O
Do, 21.03. 9:30 9 2 15 60° NO
Do, 21.03. 9:20 9 2 - 60° NO
Do, 21.03. 9:10 11 2 - 90° O
Do, 21.03. 9:00 7 2 14 100° O
Do, 21.03. 8:30 13 3 15 90° O
Do, 21.03. 8:00 0 0 7 - -
Do, 21.03. 7:30 4 1 4 30° NO
Do, 21.03. 7:00 4 1 7 40° NO
Ortszeit Untergrenze Bedeckung Gattung
total tief tief mittel hoch
Do, 21.03. 7:00 10500 m 6/8 0/8 - - -
Do, 21.03. 1:00 - 0/8 0/8 - - -
Mi, 20.03. 19:00 - 0/8 0/8 - - -
Mi, 20.03. 13:00 - 0/8 0/8 - - -
Mi, 20.03. 7:00 1470 m 4/8 4/8 - - -
Mi, 20.03. 1:00 - 0/8 0/8 - - -
Di, 19.03. 19:00 - 0/8 0/8 - - -
Di, 19.03. 13:00 1230 m 6/8 6/8 - - -
Ortszeit Bedeckungsgrad in Achtel und Wolkenuntergrenze
Do, 21.03. 10:00 keine Wolken
Do, 21.03. 9:50 keine Wolken
Do, 21.03. 9:40 keine Wolken
Do, 21.03. 9:30 2(10500m)
Do, 21.03. 9:20 2(10500m)
Do, 21.03. 9:10 3(10500m)
Do, 21.03. 9:00 3(10500m)
Do, 21.03. 8:30 7(10500m)
Do, 21.03. 8:00 3(10500m)
Do, 21.03. 7:30 6(10500m)
Do, 21.03. 7:00 6(10500m)
Ortszeit Luftdruck NN (hPa) Tendenz (hPa in 3 Std.)
Do, 21.03. 7:00 1037 0,0
Do, 21.03. 1:00 1038 + 0,1
Mi, 20.03. 19:00 1035 + 0,4
Mi, 20.03. 13:00 1035 + 0,2
Mi, 20.03. 7:00 1036 + 1,2
Mi, 20.03. 1:00 1035 + 1,2
Di, 19.03. 19:00 1031 + 1,5
Di, 19.03. 13:00 1029 + 0,6
Ortszeit Luftdruck NN (hPa) Tendenz (hPa in 3 Std.)
Do, 21.03. 10:00 1036 + 0,4
Do, 21.03. 9:50 1036 keine Meldung
Do, 21.03. 9:40 1036 keine Meldung
Do, 21.03. 9:30 1036 + 0,6
Do, 21.03. 9:20 1036 keine Meldung
Do, 21.03. 9:10 1036 keine Meldung
Do, 21.03. 9:00 1036 + 0,6
Do, 21.03. 8:30 1036 + 0,6
Do, 21.03. 8:00 1037 + 0,4
Do, 21.03. 7:30 1037 + 0,1
Do, 21.03. 7:00 1037 0,0
Ortszeit Schneehöhe (cm)
Do, 21.03. 7:00 0
Do, 21.03. 1:00 0
Mi, 20.03. 19:00 0
Mi, 20.03. 13:00 0
Mi, 20.03. 7:00 0
Mi, 20.03. 1:00 0
Di, 19.03. 19:00 0
Di, 19.03. 13:00 0
Ortszeit Schneehöhe (cm)
Do, 21.03. 10:00 0
Do, 21.03. 9:50 0
Do, 21.03. 9:40 0
Do, 21.03. 9:30 0
Do, 21.03. 9:20 0
Do, 21.03. 9:10 0
Do, 21.03. 9:00 0
Do, 21.03. 8:30 0
Do, 21.03. 8:00 0
Do, 21.03. 7:30 0
Do, 21.03. 7:00 0
Link zu dieser Seite / Seite empfehlen

Das Wetter in ...